Vorticity
10 9 9 9 9 8 8 8 8 8 8 8 8 7 7 7 6 6 6 6 6 7 7 8 8 9 9 9 9 9 8 7 7 7 7 7 8 9 10 11 12 12 12 11 10 9 8 7 6 5 5 5 6 7 8 10 10 10 9 8 7 6 7 8 9 9 9 9 8
10 9 9 9 9 8 8 8 8 8 7 7 7 7 6 6 6 6 6 7 7 8 8 9 9 9 10 9 9 8 8 7 7 7 8 9 10 10 11 12 12 11 10 9 8 7 6 5 5 5 5 6 8 9 10 12 11 10 9 7 6 6 7 9 10 10 9 8 8
9 9 9 9 8 8 8 7 7 7 7 7 6 6 6 6 6 6 7 7 8 8 9 9 9 9 9 9 8 8 8 7 8 8 9 10 11 11 11 11 10 9 8 7 6 5 5 5 5 6 7 8 10 12 12 13 12 10 8 6 6 7 8 10 10 10 9 8 8
9 8 8 8 8 7 7 7 7 6 6 6 6 6 6 6 7 7 8 8 9 9 10 10 9 9 9 8 8 8 8 9 9 10 10 11 11 11 10 9 9 7 6 6 5 6 6 6 7 8 10 11 12 13 13 12 11 9 7 6 7 8 10 11 10 9 9 8 9
7 7 7 7 6 6 6 6 6 6 6 6 6 7 7 7 8 8 9 10 10 10 10 9 9 8 8 8 8 9 9 10 11 11 11 11 10 10 9 8 7 6 5 5 6 7 8 8 9 11 12 13 14 14 13 11 9 7 6 6 8 10 11 11 10 9 9 9 9
6 6 6 5 5 5 5 5 5 6 6 6 7 7 8 9 9 9 10 10 10 9 9 9 8 8 8 8 9 9 10 10 11 11 10 10 9 8 7 7 6 5 5 6 7 6 6 7 12 14 14 15 15 14 12 9 7 5 5 7 10 11 11 10 9 9 9 9 8
5 5 5 5 5 5 5 5 6 6 7 7 8 8 9 9 10 10 10 10 9 9 9 8 8 8 8 9 9 10 10 10 10 9 9 8 7 6 6 7 6 6 7 9 10 11 13 15 16 16 15 15 14 12 10 7 5 6 7 10 11 11 11 9 9 9 9 8 8
5 5 5 5 5 5 5 6 6 7 8 8 9 10 10 10 10 10 10 9 9 9 8 8 8 8 9 9 9 9 9 9 8 8 7 6 6 6 7 7 7 8 11 12 14 14 15 16 16 15 15 14 12 10 7 5 6 7 10 12 12 11 10 9 9 9 8 7 7
6 5 5 5 5 6 6 7 8 8 9 10 10 11 11 11 11 10 10 9 8 8 8 8 9 9 9 10 9 9 8 8 7 7 7 7 7 8 9 10 12 13 14 15 16 16 16 15 15 14 13 11 9 7 6 6 8 10 12 12 11 10 10 9 8 8 7 6 6
6 6 6 6 6 7 7 8 9 10 10 11 11 11 11 11 10 10 9 8 8 8 9 9 9 9 10 9 9 8 8 7 7 7 8 9 10 11 13 14 15 15 16 16 16 15 15 15 14 13 11 9 7 6 7 8 11 12 13 12 11 10 9 8 7 6 6 6 7
7 7 7 7 7 8 9 10 10 11 12 12 11 11 11 10 10 9 9 8 9 9 10 9 9 9 9 8 8 7 7 7 8 9 10 11 13 14 15 15 15 15 15 14 14 14 14 14 13 11 9 8 7 8 9 12 13 13 12 11 10 9 8 7 6 6 6 7 7
7 7 8 8 9 9 10 11 11 12 12 12 11 11 10 10 9 9 9 9 10 10 9 9 9 9 8 8 8 8 8 9 10 11 12 13 14 15 15 14 14 14 13 13 13 13 13 12 11 10 8 7 8 10 12 13 13 12 11 10 9 8 7 6 6 6 7 8 8
8 9 9 10 11 11 12 12 12 12 12 11 11 10 10 9 9 10 10 10 10 9 9 9 8 8 8 8 9 9 11 12 12 13 14 14 14 14 14 13 13 13 13 13 13 13 12 11 10 9 8 9 11 13 14 13 12 11 10 8 7 6 6 6 6 7 8 8 9
10 10 11 11 12 12 12 12 12 11 11 10 10 10 10 10 10 10 10 10 9 9 8 8 8 9 9 10 11 12 13 13 14 14 14 14 13 13 12 12 12 12 12 13 13 12 12 10 9 9 10 12 13 14 13 12 11 10 8 7 6 6 6 6 7 8 8 9 10
12 12 12 13 13 13 12 12 11 11 10 10 10 10 10 10 10 10 10 9 9 9 8 9 9 10 11 12 13 13 13 13 13 13 13 12 12 12 12 11 12 12 13 13 13 12 11 10 10 11 13 14 14 13 12 10 9 8 7 6 6 6 6 7 8 8 9 10 10
13 13 13 13 13 12 12 11 11 10 10 10 10 10 10 10 9 9 9 9 9 9 10 11 11 12 13 14 14 13 13 13 12 12 12 12 12 11 12 12 13 13 14 14 13 13 12 12 13 14 14 14 12 11 10 8 8 7 6 6 6 7 7 8 8 9 9 10 9
14 13 13 13 12 12 11 11 10 10 10 10 10 9 9 9 9 9 9 9 10 11 12 13 13 13 13 13 13 12 12 12 12 12 12 12 12 12 12 13 14 14 15 15 14 14 14 15 15 15 14 12 11 9 8 7 7 6 6 7 7 8 8 9 9 9 9 9 9
13 13 13 12 11 11 11 10 10 10 10 9 9 9 9 9 9 9 10 11 12 12 13 13 13 13 13 12 12 12 12 12 12 12 12 12 13 13 14 15 15 16 16 16 16 16 16 16 15 13 12 10 9 8 7 7 7 7 7 8 8 9 9 9 9 9 8 8 8
13 12 12 11 11 11 10 10 10 10 9 9 9 9 9 9 9 10 11 13 13 13 13 12 12 12 12 12 12 12 12 13 13 13 13 14 14 15 16 16 17 17 17 17 17 17 16 15 13 11 9 8 7 7 7 7 8 8 8 9 9 9 9 8 8 8 7 7 7
12 12 11 11 11 10 10 10 9 9 9 9 9 9 9 10 11 12 13 14 13 13 12 12 12 12 12 12 12 13 13 13 14 14 14 15 16 17 17 17 17 18 18 17 16 15 14 12 10 8 7 7 7 7 8 8 9 9 9 9 9 8 8 7 7 7 7 7 7
12 11 11 10 10 10 10 9 9 9 9 9 9 10 11 12 13 14 14 13 12 12 12 11 11 12 12 12 13 13 14 14 15 15 15 16 16 17 17 16 16 16 16 15 14 12 10 8 7 7 7 7 8 8 9 9 9 9 9 8 8 7 7 7 6 6 7 7 8
11 10 10 10 10 9 9 9 9 9 10 10 12 13 13 14 14 14 13 12 11 11 11 11 12 12 12 13 13 14 14 15 15 15 15 15 15 15 15 14 14 13 12 11 10 8 7 6 6 7 8 9 9 10 10 10 9 9 8 8 7 7 6 6 6 7 8 9 10
10 10 10 9 9 9 9 9 10 11 12 13 14 14 14 14 13 12 11 11 11 11 11 11 12 12 13 13 14 14 14 14 14 14 14 14 13 12 12 11 11 10 9 8 7 6 6 6 7 9 10 11 11 11 10 10 9 8 7 7 6 6 6 6 7 8 9 11 12
9 9 9 9 9 10 10 11 12 13 14 14 14 14 13 12 11 11 10 10 10 11 11 11 12 12 13 13 13 13 13 13 13 12 12 12 11 11 10 9 8 8 7 7 7 7 8 8 9 10 11 12 12 11 10 9 8 7 7 6 6 6 6 7 8 9 11 12 14
9 9 10 10 11 11 12 13 14 14 14 14 13 12 12 11 10 10 10 10 10 11 11 11 11 12 12 12 11 11 11 11 11 11 11 11 10 10 9 8 8 7 7 8 8 9 10 11 12 12 12 12 11 10 9 8 7 6 6 6 6 6 7 8 9 11 13 14 16
10 10 11 11 12 13 14 14 14 14 13 12 12 11 11 10 10 10 10 10 10 10 10 10 10 10 10 10 9 9 9 10 10 10 10 9 9 9 8 8 8 8 9 9 10 11 12 13 13 13 13 12 10 9 8 7 6 6 6 6 7 8 8 9 11 13 14 16 17
11 12 12 13 13 14 14 14 13 12 12 11 11 10 10 10 10 10 9 9 9 9 8 8 8 8 8 8 8 8 8 8 9 9 9 9 9 8 9 9 9 10 11 11 12 13 14 14 13 13 12 10 8 7 6 6 6 6 7 7 8 9 10 11 13 14 15 17 17
12 13 13 13 14 13 13 12 12 11 11 11 10 10 10 10 9 9 9 8 8 7 7 7 7 7 7 7 7 7 8 8 8 8 9 9 9 9 9 10 11 11 12 13 14 14 14 13 12 11 9 8 7 6 6 6 6 7 7 8 9 10 12 13 14 15 16 17 17
13 13 13 13 13 12 12 11 11 11 11 11 10 10 10 9 9 8 8 8 7 7 7 7 7 7 7 7 8 8 8 9 9 9 10 10 10 11 11 12 12 13 14 14 14 14 13 12 10 8 7 6 6 6 7 7 7 8 9 9 10 12 13 14 15 16 17 17 16
13 13 12 12 12 12 12 12 11 11 11 11 10 10 10 9 9 8 8 8 8 8 8 7 8 8 8 9 9 9 10 11 11 12 12 12 13 13 13 14 14 14 14 14 13 12 10 9 8 7 6 6 7 7 7 8 8 9 10 11 12 13 14 15 16 16 16 16 15
12 12 12 12 12 12 12 12 12 11 11 11 10 10 10 10 10 9 9 9 9 9 9 9 10 10 10 10 11 11 12 12 13 14 14 14 14 14 15 15 15 14 13 12 11 9 8 7 7 6 7 7 8 8 9 9 10 10 11 12 13 14 15 16 16 16 15 15 14
12 12 12 12 12 12 12 12 12 11 11 11 11 11 11 11 11 11 11 11 11 11 12 12 12 12 12 12 12 13 13 13 14 14 14 14 14 14 14 14 13 12 11 9 8 7 7 7 7 7 8 8 9 9 10 10 10 11 12 13 14 15 15 16 15 15 14 13 12
13 13 13 13 12 12 12 12 12 11 11 12 12 12 12 12 12 12 12 12 12 12 12 12 12 12 12 12 13 13 13 13 13 13 13 13 13 13 12 12 11 9 8 7 7 7 7 7 8 9 9 9 10 10 10 11 11 12 13 14 14 15 15 15 14 14 13 12 11
13 13 13 12 12 12 12 12 12 12 12 12 12 12 12 12 12 12 12 12 12 12 12 12 12 12 12 12 12 12 12 12 12 12 12 12 12 11 11 10 9 8 7 6 7 7 8 8 9 9 10 10 10 10 11 11 12 13 13 14 14 14 14 14 13 12 12 11 10
13 12 12 12 12 12 12 12 12 12 12 11 11 11 11 10 10 10 10 11 11 11 11 12 12 12 12 12 12 12 12 12 12 12 11 11 10 10 9 8 8 7 6 6 7 8 8 9 9 9 10 10 10 10 11 12 12 13 13 14 14 14 14 13 12 12 11 10 9
12 12 12 12 12 12 11 11 11 10 10 9 9 9 9 9 9 9 9 9 10 10 10 11 11 11 11 11 11 11 11 11 11 10 10 10 9 9 8 8 7 7 7 7 7 8 8 9 9 9 9 9 10 10 11 12 12 12 13 13 13 13 13 12 12 11 10 10 9
12 12 12 12 11 11 10 9 9 8 8 7 7 7 7 7 7 8 8 8 9 9 10 10 10 11 11 11 11 11 11 10 10 10 10 10 9 9 8 8 7 7 7 7 8 8 8 8 8 8 8 9 9 10 10 11 12 12 12 13 13 13 12 12 11 11 10 9 9
11 11 11 10 9 9 8 7 7 6 6 6 6 6 6 6 7 7 7 8 8 8 9 9 10 10 10 10 10 10 10 10 10 10 9 9 9 9 8 8 8 7 7 7 8 8 8 7 7 7 7 8 8 9 10 10 11 11 12 12 12 12 12 11 11 11 10 10 9
10 10 9 8 8 7 6 6 6 5 5 5 5 5 5 6 6 6 6 7 7 8 8 9 9 10 10 10 10 10 11 11 10 10 10 9 9 9 8 8 8 8 8 8 8 7 7 7 6 6 6 7 7 8 9 9 10 11 11 11 12 12 12 11 11 11 10 10 10
9 8 7 7 6 6 5 5 5 5 5 5 5 5 5 5 5 6 6 6 7 7 8 8 9 9 10 10 11 11 11 11 11 11 10 9 9 8 8 8 8 8 8 8 8 7 7 6 6 5 5 6 7 7 8 9 9 10 10 11 11 11 11 11 11 11 10 10 10
8 7 6 6 5 5 5 5 5 5 5 5 5 5 5 5 5 5 6 6 6 7 8 8 8 9 10 10 11 11 11 11 11 11 10 10 9 9 8 8 8 8 8 8 8 7 7 6 5 5 5 5 5 6 7 8 8 9 10 10 10 11 11 11 11 11 10 10 10
Height
5778 5778 5778 5778 5778 5778 5778 5778 5778 5778 5778 5778 5778 5778 5778 5777 5777 5777 5776 5776 5775 5775 5774 5774 5773 5773 5772 5771 5771 5770 5770 5770 5769 5769 5768 5768 5767 5766 5765 5764 5764 5763 5762 5761 5760 5759 5758 5758 5757 5756 5755 5754 5754 5752 5751 5751 5750 5749 5748 5747 5746 5745 5744 5743 5742 5740 5739 5738 5737
5775 5775 5775 5775 5775 5775 5775 5775 5775 5775 5774 5774 5774 5774 5774 5774 5774 5774 5773 5773 5773 5772 5772 5771 5770 5770 5769 5769 5768 5768 5767 5767 5766 5766 5765 5765 5764 5763 5763 5762 5761 5760 5759 5759 5758 5757 5756 5755 5754 5753 5752 5751 5750 5749 5749 5748 5747 5746 5745 5744 5743 5742 5741 5740 5739 5738 5737 5735 5734
5773 5773 5773 5773 5773 5773 5772 5772 5772 5772 5772 5772 5771 5771 5771 5771 5771 5771 5770 5770 5770 5769 5769 5768 5768 5767 5766 5766 5765 5765 5764 5764 5763 5763 5762 5762 5761 5760 5759 5759 5758 5757 5756 5756 5755 5754 5753 5752 5751 5750 5749 5748 5747 5747 5745 5745 5744 5743 5742 5741 5740 5739 5739 5737 5736 5735 5734 5733 5732
5770 5770 5770 5770 5770 5770 5769 5769 5769 5769 5769 5769 5769 5769 5768 5768 5768 5768 5767 5767 5767 5766 5766 5765 5765 5764 5764 5763 5762 5762 5761 5761 5760 5760 5759 5759 5758 5757 5757 5756 5755 5754 5754 5753 5752 5751 5750 5749 5748 5747 5746 5745 5744 5744 5743 5742 5741 5740 5740 5739 5738 5737 5736 5734 5734 5733 5732 5730 5729
5768 5768 5767 5767 5767 5767 5767 5766 5766 5766 5766 5766 5765 5765 5765 5765 5765 5765 5764 5764 5764 5763 5763 5763 5762 5761 5761 5760 5759 5759 5759 5758 5758 5757 5756 5756 5755 5754 5754 5753 5752 5751 5751 5750 5749 5748 5747 5746 5745 5744 5744 5743 5742 5741 5740 5739 5739 5738 5737 5736 5735 5734 5733 5732 5731 5730 5729 5728 5726
5765 5765 5765 5764 5764 5764 5764 5764 5763 5763 5763 5763 5763 5762 5762 5762 5762 5762 5761 5761 5761 5760 5760 5759 5759 5759 5758 5757 5757 5756 5756 5755 5755 5754 5754 5753 5752 5752 5751 5750 5749 5749 5748 5747 5746 5745 5745 5744 5743 5741 5740 5739 5739 5738 5737 5737 5736 5735 5734 5733 5732 5731 5730 5729 5728 5727 5726 5725 5724
5762 5762 5762 5762 5762 5761 5761 5761 5760 5760 5760 5759 5759 5759 5759 5759 5759 5759 5758 5758 5758 5757 5757 5756 5756 5756 5755 5755 5754 5754 5753 5753 5752 5751 5751 5750 5749 5749 5749 5749 5748 5746 5745 5744 5743 5742 5741 5741 5739 5738 5737 5737 5736 5736 5735 5734 5733 5732 5732 5731 5730 5729 5728 5727 5726 5725 5724 5723 5721
5759 5759 5759 5759 5759 5759 5758 5758 5758 5757 5757 5757 5756 5756 5756 5756 5756 5755 5755 5755 5754 5754 5754 5754 5753 5753 5752 5752 5751 5751 5750 5750 5749 5749 5748 5747 5746 5746 5745 5745 5745 5744 5742 5741 5740 5739 5738 5737 5736 5735 5734 5734 5734 5733 5732 5731 5731 5730 5729 5729 5727 5726 5726 5724 5724 5722 5721 5720 5719
5756 5756 5756 5756 5756 5755 5755 5755 5754 5754 5754 5754 5753 5753 5753 5753 5753 5752 5752 5752 5751 5751 5751 5750 5750 5750 5749 5749 5749 5748 5748 5747 5746 5746 5745 5744 5744 5743 5742 5742 5740 5739 5739 5738 5737 5736 5735 5734 5733 5732 5732 5731 5731 5730 5729 5729 5728 5728 5727 5726 5725 5724 5723 5722 5721 5720 5719 5717 5716
5753 5753 5753 5753 5753 5753 5752 5752 5752 5751 5751 5751 5750 5750 5750 5750 5749 5749 5749 5749 5749 5748 5748 5748 5747 5747 5746 5746 5745 5745 5744 5744 5743 5743 5742 5741 5740 5740 5739 5738 5737 5736 5735 5734 5734 5733 5732 5731 5730 5730 5729 5729 5728 5728 5727 5727 5726 5725 5724 5723 5722 5721 5720 5719 5718 5717 5716 5714 5713
5750 5750 5750 5750 5750 5749 5749 5749 5749 5748 5748 5748 5747 5747 5747 5747 5747 5746 5746 5746 5746 5745 5745 5745 5744 5744 5744 5743 5743 5742 5742 5741 5740 5740 5739 5739 5738 5737 5736 5735 5734 5734 5733 5732 5731 5730 5729 5729 5728 5728 5727 5726 5726 5725 5725 5724 5723 5723 5722 5721 5720 5719 5718 5717 5715 5714 5713 5712 5710
5747 5747 5747 5747 5747 5747 5746 5746 5746 5745 5745 5745 5744 5744 5744 5744 5744 5744 5743 5743 5743 5743 5742 5742 5742 5741 5741 5740 5740 5739 5739 5738 5737 5737 5736 5736 5735 5734 5734 5733 5732 5731 5730 5729 5728 5727 5727 5726 5726 5725 5725 5724 5724 5723 5722 5721 5721 5720 5719 5718 5717 5716 5715 5714 5713 5711 5710 5709 5708
5744 5744 5744 5744 5744 5744 5744 5743 5743 5743 5743 5742 5742 5742 5741 5741 5741 5741 5741 5740 5740 5740 5740 5739 5739 5739 5738 5738 5737 5736 5736 5735 5734 5734 5734 5733 5732 5732 5731 5730 5729 5728 5727 5726 5725 5725 5724 5724 5723 5723 5723 5722 5721 5720 5720 5719 5718 5717 5716 5715 5714 5714 5712 5711 5710 5709 5707 5706 5705
5741 5741 5741 5741 5741 5741 5740 5740 5740 5740 5740 5740 5739 5739 5739 5739 5739 5738 5738 5738 5738 5737 5737 5737 5736 5736 5735 5735 5734 5734 5733 5732 5732 5731 5731 5730 5729 5729 5728 5727 5726 5725 5724 5724 5723 5722 5722 5721 5721 5720 5720 5719 5719 5718 5717 5716 5715 5715 5714 5713 5712 5711 5709 5709 5707 5706 5705 5704 5702
5738 5738 5738 5738 5738 5738 5738 5738 5738 5737 5737 5737 5737 5737 5737 5736 5736 5736 5736 5735 5735 5735 5734 5734 5734 5733 5733 5732 5731 5731 5730 5729 5729 5729 5728 5727 5727 5726 5725 5724 5723 5723 5722 5721 5720 5720 5719 5719 5719 5718 5718 5717 5716 5715 5714 5714 5713 5712 5711 5710 5709 5708 5707 5706 5704 5703 5702 5701 5699
5735 5735 5735 5735 5735 5735 5735 5735 5735 5735 5735 5735 5734 5734 5734 5734 5734 5733 5733 5733 5732 5732 5732 5731 5731 5730 5730 5729 5729 5728 5727 5727 5726 5726 5725 5724 5724 5723 5722 5721 5721 5720 5719 5719 5718 5718 5717 5717 5716 5715 5715 5714 5714 5713 5712 5711 5710 5709 5708 5707 5706 5705 5704 5703 5702 5700 5699 5698 5697
5732 5732 5732 5732 5732 5732 5732 5732 5732 5732 5732 5732 5732 5732 5732 5731 5731 5731 5730 5730 5730 5729 5729 5728 5728 5728 5727 5726 5726 5725 5725 5724 5724 5723 5722 5722 5721 5720 5719 5719 5718 5717 5717 5716 5716 5715 5715 5714 5714 5713 5712 5712 5711 5710 5709 5709 5708 5707 5706 5704 5704 5702 5701 5700 5699 5698 5697 5695 5694
5729 5729 5729 5729 5730 5730 5730 5730 5730 5730 5730 5730 5729 5729 5729 5729 5729 5728 5728 5727 5727 5727 5726 5726 5725 5725 5724 5724 5723 5723 5722 5721 5721 5720 5719 5719 5718 5717 5717 5716 5715 5715 5714 5714 5714 5713 5712 5712 5711 5710 5710 5709 5708 5708 5707 5706 5705 5704 5703 5702 5701 5700 5699 5698 5696 5695 5694 5693 5692
5727 5727 5727 5727 5727 5727 5727 5727 5727 5727 5727 5727 5727 5727 5726 5726 5726 5725 5725 5725 5724 5724 5724 5723 5723 5722 5722 5721 5721 5720 5719 5719 5718 5717 5717 5716 5715 5715 5714 5714 5713 5713 5712 5711 5711 5710 5710 5709 5709 5708 5707 5707 5706 5705 5704 5703 5702 5701 5700 5699 5698 5697 5696 5695 5694 5693 5692 5690 5689
5724 5724 5724 5724 5724 5724 5724 5724 5724 5724 5724 5724 5724 5724 5724 5724 5723 5723 5723 5722 5722 5722 5721 5721 5720 5720 5719 5719 5718 5717 5717 5716 5715 5715 5714 5714 5713 5712 5712 5711 5711 5710 5709 5709 5709 5708 5708 5707 5706 5706 5705 5704 5703 5703 5702 5701 5700 5699 5698 5697 5696 5694 5694 5693 5691 5690 5689 5688 5687
5721 5721 5722 5722 5722 5722 5722 5722 5722 5722 5722 5722 5722 5721 5721 5721 5721 5720 5720 5720 5719 5719 5719 5718 5718 5717 5717 5716 5715 5715 5714 5714 5713 5712 5712 5711 5710 5710 5709 5709 5708 5708 5707 5707 5706 5706 5705 5704 5704 5703 5703 5702 5701 5700 5699 5698 5697 5696 5695 5694 5693 5692 5691 5690 5689 5688 5687 5685 5684
5719 5719 5719 5719 5719 5719 5719 5719 5719 5719 5719 5719 5719 5719 5719 5719 5718 5718 5718 5718 5717 5717 5716 5716 5715 5715 5714 5714 5713 5712 5712 5711 5710 5710 5709 5709 5708 5708 5707 5707 5706 5706 5705 5704 5704 5704 5703 5702 5701 5701 5700 5699 5698 5697 5696 5695 5694 5694 5693 5692 5691 5690 5689 5688 5687 5685 5684 5683 5681
5716 5716 5717 5717 5717 5717 5717 5717 5717 5717 5717 5716 5716 5716 5716 5716 5716 5716 5715 5715 5715 5714 5714 5714 5713 5712 5712 5711 5710 5710 5709 5709 5708 5708 5707 5706 5706 5705 5705 5704 5704 5704 5703 5702 5702 5701 5700 5700 5699 5698 5697 5697 5696 5695 5694 5693 5692 5691 5690 5689 5688 5687 5686 5685 5684 5683 5681 5680 5679
5714 5714 5714 5714 5714 5714 5714 5714 5714 5714 5714 5714 5714 5714 5714 5714 5714 5713 5713 5713 5712 5712 5711 5711 5710 5710 5709 5709 5708 5708 5707 5706 5706 5705 5705 5704 5704 5703 5703 5702 5702 5701 5700 5700 5699 5699 5698 5697 5696 5696 5695 5694 5693 5692 5691 5690 5689 5689 5688 5687 5686 5685 5684 5683 5681 5680 5679 5677 5676
5712 5712 5712 5712 5712 5712 5712 5712 5712 5712 5712 5712 5712 5711 5711 5711 5711 5711 5711 5710 5710 5709 5709 5709 5708 5708 5707 5706 5706 5705 5705 5704 5704 5703 5703 5702 5702 5701 5700 5700 5699 5699 5698 5698 5697 5696 5695 5695 5694 5693 5692 5691 5691 5690 5689 5688 5687 5686 5685 5684 5684 5682 5681 5680 5679 5677 5676 5674 5673
5709 5709 5709 5709 5709 5709 5709 5709 5709 5709 5709 5709 5709 5709 5709 5709 5709 5709 5708 5708 5708 5707 5707 5706 5706 5705 5705 5704 5704 5703 5703 5702 5702 5701 5701 5700 5699 5699 5698 5698 5697 5696 5696 5695 5694 5694 5693 5692 5691 5691 5690 5689 5688 5687 5687 5686 5685 5684 5683 5682 5681 5680 5679 5677 5676 5675 5674 5672 5671
5707 5707 5707 5707 5707 5707 5707 5707 5707 5707 5707 5707 5707 5707 5707 5707 5706 5706 5706 5706 5705 5705 5704 5704 5704 5703 5703 5702 5702 5701 5700 5700 5699 5699 5699 5698 5697 5697 5696 5695 5695 5694 5693 5693 5692 5691 5691 5690 5689 5688 5688 5687 5686 5685 5684 5683 5682 5681 5680 5679 5678 5677 5676 5675 5674 5672 5671 5669 5668
5704 5704 5704 5705 5705 5705 5705 5705 5705 5705 5705 5705 5705 5704 5704 5704 5704 5704 5704 5703 5703 5703 5702 5702 5701 5701 5700 5700 5699 5699 5699 5698 5697 5697 5696 5695 5695 5694 5694 5693 5692 5692 5691 5690 5690 5689 5688 5688 5687 5686 5685 5684 5684 5683 5682 5681 5680 5679 5678 5677 5676 5674 5673 5672 5671 5669 5668 5667 5666
5702 5702 5702 5703 5703 5703 5703 5703 5703 5703 5703 5703 5703 5702 5702 5702 5702 5702 5701 5701 5701 5700 5700 5699 5699 5699 5698 5698 5697 5697 5696 5696 5695 5694 5694 5693 5693 5692 5691 5691 5690 5689 5689 5688 5687 5687 5686 5685 5684 5684 5683 5682 5681 5680 5679 5679 5678 5677 5676 5674 5673 5672 5671 5669 5668 5667 5666 5665 5664
5700 5700 5700 5700 5700 5700 5700 5701 5701 5700 5700 5700 5700 5700 5700 5700 5700 5699 5699 5699 5699 5698 5698 5697 5697 5696 5696 5695 5695 5694 5694 5693 5693 5692 5691 5691 5690 5690 5689 5689 5688 5687 5686 5686 5685 5684 5684 5683 5682 5681 5681 5680 5679 5678 5677 5676 5675 5674 5673 5672 5671 5669 5668 5667 5666 5664 5664 5662 5661
5698 5698 5698 5698 5698 5699 5699 5699 5699 5699 5698 5698 5698 5698 5698 5698 5698 5697 5697 5697 5696 5696 5695 5695 5694 5694 5694 5693 5693 5692 5692 5691 5690 5690 5689 5689 5688 5687 5687 5686 5685 5685 5684 5684 5683 5682 5681 5681 5680 5679 5679 5678 5677 5676 5675 5674 5673 5672 5671 5669 5668 5667 5665 5664 5663 5662 5661 5660 5659
5695 5696 5696 5696 5696 5696 5696 5696 5696 5696 5696 5696 5696 5696 5696 5696 5695 5695 5695 5694 5694 5694 5693 5693 5692 5692 5691 5691 5690 5690 5689 5689 5688 5688 5687 5686 5686 5685 5684 5684 5684 5683 5682 5681 5681 5680 5679 5679 5678 5677 5676 5676 5675 5674 5673 5672 5670 5669 5668 5667 5665 5664 5663 5662 5661 5660 5659 5658 5657
5694 5694 5694 5694 5694 5694 5694 5694 5694 5694 5694 5694 5694 5694 5694 5694 5693 5693 5693 5692 5692 5691 5691 5690 5690 5690 5689 5689 5688 5688 5687 5687 5686 5685 5685 5684 5684 5683 5683 5682 5681 5680 5680 5679 5679 5678 5677 5677 5676 5675 5674 5674 5672 5671 5670 5669 5668 5667 5665 5664 5663 5662 5661 5660 5659 5658 5657 5656 5655
5692 5692 5692 5692 5692 5693 5693 5693 5693 5693 5693 5692 5692 5692 5692 5692 5691 5691 5690 5690 5690 5689 5689 5689 5688 5688 5687 5687 5686 5686 5685 5684 5684 5683 5683 5682 5682 5681 5680 5680 5679 5678 5678 5677 5676 5676 5675 5674 5674 5673 5672 5671 5670 5669 5668 5667 5666 5664 5663 5662 5661 5659 5659 5658 5657 5656 5655 5654 5653
5690 5690 5690 5690 5691 5691 5691 5691 5691 5691 5691 5691 5690 5690 5690 5689 5689 5689 5689 5688 5688 5687 5687 5686 5686 5685 5685 5684 5684 5683 5683 5682 5682 5681 5680 5680 5679 5679 5678 5678 5677 5676 5676 5675 5674 5674 5673 5672 5672 5671 5670 5669 5668 5667 5666 5664 5663 5662 5661 5660 5659 5658 5656 5655 5654 5654 5653 5652 5651
5688 5688 5689 5689 5689 5689 5689 5689 5689 5689 5689 5689 5689 5688 5688 5688 5687 5687 5686 5686 5686 5685 5685 5684 5684 5684 5683 5682 5682 5681 5681 5680 5679 5679 5679 5678 5677 5677 5676 5676 5675 5674 5674 5673 5672 5672 5671 5670 5669 5669 5668 5667 5665 5664 5663 5662 5661 5660 5659 5658 5656 5655 5654 5654 5653 5652 5651 5650 5649
5686 5687 5687 5687 5687 5687 5687 5687 5687 5687 5687 5687 5687 5686 5686 5686 5685 5685 5684 5684 5684 5684 5683 5682 5682 5681 5681 5680 5679 5679 5679 5678 5677 5677 5676 5676 5675 5675 5674 5674 5673 5672 5672 5671 5670 5669 5669 5668 5667 5666 5665 5664 5663 5662 5661 5660 5659 5658 5656 5655 5654 5654 5653 5652 5651 5650 5649 5648 5648
5684 5685 5685 5685 5685 5685 5685 5685 5685 5685 5685 5685 5685 5684 5684 5684 5684 5683 5683 5682 5682 5681 5681 5680 5680 5679 5679 5678 5678 5677 5676 5676 5675 5675 5674 5674 5673 5673 5672 5672 5671 5670 5669 5669 5668 5667 5667 5666 5665 5664 5663 5662 5661 5660 5659 5658 5657 5655 5654 5654 5653 5652 5651 5650 5649 5648 5647 5647 5646
5683 5683 5683 5684 5684 5684 5684 5684 5684 5684 5683 5683 5683 5683 5682 5682 5682 5681 5681 5680 5680 5679 5679 5678 5678 5677 5677 5676 5675 5675 5674 5674 5673 5673 5672 5672 5671 5670 5670 5669 5669 5668 5667 5667 5666 5665 5664 5664 5663 5662 5661 5660 5659 5658 5657 5655 5654 5654 5653 5652 5651 5650 5649 5648 5647 5646 5645 5645 5644
5681 5681 5681 5681 5682 5682 5682 5682 5682 5682 5681 5681 5681 5681 5680 5680 5680 5679 5679 5678 5678 5677 5677 5676 5676 5675 5674 5674 5674 5673 5672 5672 5671 5670 5670 5669 5669 5668 5668 5667 5666 5666 5665 5664 5664 5663 5662 5661 5660 5659 5659 5658 5656 5655 5654 5654 5653 5652 5651 5650 5649 5648 5647 5646 5645 5644 5644 5643 5642
5679 5679 5679 5679 5680 5680 5680 5680 5680 5679 5679 5679 5679 5679 5679 5678 5678 5677 5677 5676 5676 5675 5675 5674 5674 5673 5673 5672 5671 5671 5670 5669 5669 5668 5668 5667 5667 5666 5665 5665 5664 5664 5663 5662 5661 5661 5660 5659 5658 5657 5656 5655 5654 5653 5652 5651 5650 5650 5649 5648 5647 5646 5645 5644 5643 5642 5641 5640 5639